^^
Datos históricos de la estación: Murcia-Puente Tocinos
Diario Informe para Agosto 4, 2019 Unidades:  Métrico    Ingés   Ambas
Diario Semanal Mensual Anual
  Máxima: Mínima: Promedio:
Temperatura: 30.5 °C 22.7 °C 26.2 °C
Punto de rocio: 21.3 °C 18.6 °C 20.2 °C
Humedad: 87% 52.1% 71%
Velocidad viento: 19km/h 0km/h 7.1km/h
Racha viento: 33.8km/h - -
Viento- - ESE
Presión: 1018.7 hPa 1013.7 hPa -
Precipitación: 0.0 mm    
 
 
Tabla de datos para Agosto 4, 2019
Hora Temperatura Punto de rocio Presión Viento Velocidad viento Racha viento Humedad Intensidad lluvia(por hora) Nubes
00:04 24.4 °C 20.8 °C 1018.7 hPa NE 3.9 km/h 8 km/h 80% 0.0 mm
00:09 24.4 °C 20.9 °C 1018.7 hPa NE 3.9 km/h 8 km/h 80.8% 0.0 mm
00:14 24.3 °C 20.9 °C 1018.7 hPa ENE 3.9 km/h 8 km/h 81% 0.0 mm
00:19 24.3 °C 20.8 °C 1018.7 hPa NE 3.5 km/h 7.4 km/h 81% 0.0 mm
00:24 24.3 °C 20.8 °C 1018.6 hPa ENE 2.9 km/h 8 km/h 81% 0.0 mm
00:29 24.3 °C 20.8 °C 1018.6 hPa NE 3 km/h 6.4 km/h 81% 0.0 mm
00:34 24.3 °C 20.8 °C 1018.6 hPa NE 3.2 km/h 6.4 km/h 81% 0.0 mm
00:39 24.3 °C 20.8 °C 1018.6 hPa NE 3.2 km/h 7.4 km/h 81% 0.0 mm
00:44 24.3 °C 20.8 °C 1018.6 hPa ENE 3.2 km/h 8 km/h 81% 0.0 mm
00:49 24.3 °C 20.8 °C 1018.6 hPa NE 2.9 km/h 5.8 km/h 81% 0.0 mm
00:54 24.3 °C 20.8 °C 1018.6 hPa NNO 2.2 km/h 7.4 km/h 81% 0.0 mm
00:59 24.2 °C 20.8 °C 1018.6 hPa NNE 2.8 km/h 8 km/h 81.6% 0.0 mm
01:04 24 °C 20.7 °C 1018.6 hPa NNE 3.9 km/h 8 km/h 82% 0.0 mm
01:09 23.9 °C 20.8 °C 1018.5 hPa NNE 3.9 km/h 8 km/h 82.7% 0.0 mm
01:14 23.8 °C 20.8 °C 1018.5 hPa NE 3.9 km/h 8 km/h 83% 0.0 mm
01:19 23.8 °C 20.7 °C 1018.6 hPa NE 4.1 km/h 9.3 km/h 83% 0.0 mm
01:24 23.7 °C 20.7 °C 1018.6 hPa NE 4.7 km/h 10 km/h 83.2% 0.0 mm
01:29 23.7 °C 20.8 °C 1018.6 hPa NE 5.2 km/h 10 km/h 84% 0.0 mm
01:34 23.7 °C 20.8 °C 1018.6 hPa NE 6.5 km/h 9.7 km/h 84% 0.0 mm
01:39 23.6 °C 20.7 °C 1018.6 hPa NE 6.3 km/h 9.7 km/h 84% 0.0 mm
01:44 23.5 °C 20.6 °C 1018.6 hPa NE 5.8 km/h 9.7 km/h 84% 0.0 mm
01:49 23.4 °C 20.7 °C 1018.6 hPa NE 5.8 km/h 9.7 km/h 84.9% 0.0 mm
01:54 23.4 °C 20.7 °C 1018.5 hPa NE 5.8 km/h 9.7 km/h 85% 0.0 mm
01:59 23.3 °C 20.6 °C 1018.5 hPa NE 6.2 km/h 11.1 km/h 85% 0.0 mm
02:04 23.3 °C 20.6 °C 1018.5 hPa NE 6.9 km/h 11.3 km/h 85% 0.0 mm
02:09 23.3 °C 20.7 °C 1018.4 hPa NE 6.8 km/h 11.9 km/h 85.4% 0.0 mm
02:14 23.3 °C 20.8 °C 1018.4 hPa NNE 6.5 km/h 11.3 km/h 86% 0.0 mm
02:19 23.3 °C 20.8 °C 1018.4 hPa NE 5.9 km/h 11.1 km/h 86% 0.0 mm
02:24 23.2 °C 20.8 °C 1018.3 hPa NE 4.7 km/h 11.3 km/h 86% 0.0 mm
02:29 23.2 °C 20.7 °C 1018.3 hPa NE 5.2 km/h 11.3 km/h 86% 0.0 mm
02:34 23.2 °C 20.7 °C 1018.3 hPa ENE 6.5 km/h 9.7 km/h 86% 0.0 mm
02:39 23.2 °C 20.7 °C 1018.2 hPa Este 5.6 km/h 8 km/h 86% 0.0 mm
02:44 23.2 °C 20.7 °C 1018.2 hPa ESE 3.9 km/h 8 km/h 86% 0.0 mm
02:49 23.1 °C 20.6 °C 1018.3 hPa ENE 3.6 km/h 7.4 km/h 86% 0.0 mm
02:54 23.1 °C 20.6 °C 1018.3 hPa ENE 2.9 km/h 8 km/h 86% 0.0 mm
02:59 23.1 °C 20.6 °C 1018.3 hPa ESE 3.2 km/h 7.4 km/h 86% 0.0 mm
03:04 23.1 °C 20.7 °C 1018.3 hPa ESE 3.9 km/h 8 km/h 86.4% 0.0 mm
03:09 23.1 °C 20.8 °C 1018.0 hPa NE 3.6 km/h 8.4 km/h 87% 0.0 mm
03:14 23.1 °C 20.8 °C 1018.0 hPa NE 3.2 km/h 8 km/h 87% 0.0 mm
03:19 23.2 °C 20.9 °C 1018.0 hPa ENE 3.7 km/h 8 km/h 87% 0.0 mm
03:24 23.2 °C 20.8 °C 1017.9 hPa Este 4.7 km/h 8 km/h 86.4% 0.0 mm
03:29 23.3 °C 20.8 °C 1017.9 hPa NE 4.2 km/h 8 km/h 86% 0.0 mm
03:34 23.3 °C 20.8 °C 1017.9 hPa NE 3.2 km/h 6.4 km/h 86% 0.0 mm
03:39 23.3 °C 20.8 °C 1017.8 hPa NE 2.2 km/h 3.7 km/h 86% 0.0 mm
03:44 23.2 °C 20.7 °C 1017.8 hPa Calm   3.2 km/h 86% 0.0 mm
03:49 23.2 °C 20.7 °C 1017.8 hPa NO 0.7 km/h 6.4 km/h 86% 0.0 mm
03:54 23.2 °C 20.7 °C 1017.8 hPa NO 2.2 km/h 8 km/h 86% 0.0 mm
03:59 23.1 °C 20.6 °C 1017.8 hPa NO 2.5 km/h 4.8 km/h 86% 0.0 mm
04:04 23.1 °C 20.6 °C 1017.8 hPa NO 2.9 km/h 3.2 km/h 86% 0.0 mm
04:09 23.1 °C 20.6 °C 1017.7 hPa NO 1.9 km/h   86% 0.0 mm
04:14 23.1 °C 20.7 °C 1017.7 hPa Calm     86.5% 0.0 mm
04:19 23.2 °C 20.8 °C 1017.7 hPa Calm   2.9 km/h 86.5% 0.0 mm
04:24 23.2 °C 20.7 °C 1017.6 hPa Calm   6.4 km/h 86% 0.0 mm
04:29 23.1 °C 20.6 °C 1017.6 hPa NE 1.1 km/h 8 km/h 86% 0.0 mm
04:34 23.1 °C 20.6 °C 1017.6 hPa NE 3.2 km/h 8 km/h 86% 0.0 mm
04:39 23.1 °C 20.7 °C 1017.4 hPa NE 3.1 km/h 6.4 km/h 86.3% 0.0 mm
04:44 23.1 °C 20.8 °C 1017.4 hPa NE 2.9 km/h 3.7 km/h 86.9% 0.0 mm
04:49 23 °C 20.8 °C 1017.4 hPa NE 2 km/h   87% 0.0 mm
04:54 23 °C 20.7 °C 1017.2 hPa Calm     87% 0.0 mm
04:59 23 °C 20.7 °C 1017.2 hPa Calm   4.7 km/h 87% 0.0 mm
05:04 23 °C 20.7 °C 1017.2 hPa Calm   5.6 km/h 87% 0.0 mm
05:09 23 °C 20.7 °C 1017.2 hPa NE 0.7 km/h 4.8 km/h 87% 0.0 mm
05:14 23 °C 20.7 °C 1017.2 hPa NE 2.2 km/h 3.2 km/h 87% 0.0 mm
05:19 23 °C 20.7 °C 1017.2 hPa NE 1.5 km/h   87% 0.0 mm
05:24 23 °C 20.7 °C 1017.1 hPa Calm   5 km/h 87% 0.0 mm
05:29 23 °C 20.7 °C 1017.1 hPa NE 0.7 km/h 5.6 km/h 87% 0.0 mm
05:34 22.9 °C 20.7 °C 1017.1 hPa NE 2.2 km/h 4.8 km/h 87% 0.0 mm
05:39 22.9 °C 20.6 °C 1017.1 hPa NE 1.5 km/h 6.4 km/h 87% 0.0 mm
05:44 22.9 °C 20.6 °C 1017.1 hPa Calm   8 km/h 87% 0.0 mm
05:49 22.9 °C 20.6 °C 1017.2 hPa SE 1.5 km/h 8 km/h 87% 0.0 mm
05:54 22.8 °C 20.5 °C 1017.2 hPa SE 4.7 km/h 8 km/h 87% 0.0 mm
05:59 22.8 °C 20.5 °C 1017.2 hPa SSE 4.4 km/h 8 km/h 87% 0.0 mm
06:04 22.8 °C 20.5 °C 1017.2 hPa SSE 3.9 km/h 8 km/h 87% 0.0 mm
06:09 22.8 °C 20.5 °C 1017.1 hPa SSE 3.6 km/h 6.4 km/h 87% 0.0 mm
06:14 22.8 °C 20.5 °C 1017.1 hPa Sur 3.2 km/h 7.4 km/h 87% 0.0 mm
06:19 22.8 °C 20.5 °C 1017.2 hPa Sur 3.7 km/h 8 km/h 87% 0.0 mm
06:24 22.8 °C 20.5 °C 1017.2 hPa Sur 4.7 km/h 8 km/h 87% 0.0 mm
06:29 22.8 °C 20.5 °C 1017.2 hPa Sur 4.8 km/h 8.4 km/h 87% 0.0 mm
06:34 22.9 °C 20.6 °C 1017.3 hPa SSO 5 km/h 8 km/h 87% 0.0 mm
06:39 22.9 °C 20.6 °C 1017.3 hPa SSO 4.9 km/h 8.4 km/h 87% 0.0 mm
06:44 22.9 °C 20.5 °C 1017.3 hPa SSO 4.7 km/h 9.3 km/h 86.3% 0.0 mm
06:49 22.9 °C 20.4 °C 1017.3 hPa SSO 5.2 km/h 9.7 km/h 86% 0.0 mm
06:54 22.9 °C 20.4 °C 1017.3 hPa SSO 6.5 km/h 9.5 km/h 86% 0.0 mm
06:59 22.9 °C 20.4 °C 1017.3 hPa SSO 6.2 km/h 9.7 km/h 86% 0.0 mm
07:04 22.9 °C 20.4 °C 1017.3 hPa SSO 5.8 km/h 9.7 km/h 86% 0.0 mm
07:09 22.9 °C 20.4 °C 1017.3 hPa SSO 5.8 km/h 9.7 km/h 86% 0.0 mm
07:14 22.8 °C 20.4 °C 1017.3 hPa SO 5.8 km/h 8 km/h 86% 0.0 mm
07:19 22.8 °C 20.3 °C 1017.3 hPa SO 4.8 km/h 6.4 km/h 86% 0.0 mm
07:24 22.8 °C 20.3 °C 1017.3 hPa OSO 2.9 km/h 5.8 km/h 86% 0.0 mm
07:29 22.8 °C 20.3 °C 1017.3 hPa OSO 2.7 km/h 6.4 km/h 86% 0.0 mm
07:34 22.8 °C 20.3 °C 1017.3 hPa Oeste 2.2 km/h 3.2 km/h 86% 0.0 mm
07:39 22.8 °C 20.3 °C 1017.3 hPa Oeste 1.5 km/h   86% 0.0 mm
07:44 22.7 °C 20.2 °C 1017.3 hPa Calm     86% 0.0 mm
07:49 22.7 °C 20.2 °C 1017.4 hPa Calm     86% 0.0 mm
07:54 22.7 °C 20.2 °C 1017.4 hPa Calm     86% 0.0 mm
07:59 22.7 °C 20.2 °C 1017.4 hPa Calm     86% 0.0 mm
08:04 22.7 °C 20.2 °C 1017.6 hPa Calm     86% 0.0 mm
08:09 22.7 °C 20.3 °C 1017.6 hPa Calm     86% 0.0 mm
08:14 22.8 °C 20.3 °C 1017.6 hPa Calm     86% 0.0 mm
08:19 22.8 °C 20.3 °C 1017.7 hPa Calm     86% 0.0 mm
08:24 22.9 °C 20.3 °C 1017.7 hPa Calm     85.5% 0.0 mm
08:29 22.9 °C 20.2 °C 1017.7 hPa Calm     85% 0.0 mm
08:34 23.1 °C 20.4 °C 1017.8 hPa Calm     85% 0.0 mm
08:39 23.2 °C 20.3 °C 1017.8 hPa Calm   5 km/h 84.2% 0.0 mm
08:44 23.2 °C 20.3 °C 1017.8 hPa Calm   5.8 km/h 84% 0.0 mm
08:49 23.3 °C 20.4 °C 1017.8 hPa SSE 0.9 km/h 6.4 km/h 84% 0.0 mm
08:54 23.4 °C 20.5 °C 1017.8 hPa SSE 2.9 km/h 3.2 km/h 83.6% 0.0 mm
08:59 23.5 °C 20.5 °C 1017.8 hPa SSE 1.9 km/h 5.8 km/h 83% 0.0 mm
09:04 23.6 °C 20.6 °C 1017.9 hPa Calm   6.4 km/h 83.2% 0.0 mm
09:09 23.8 °C 20.7 °C 1017.9 hPa SSE 0.9 km/h 6.4 km/h 83.1% 0.0 mm
09:14 24 °C 20.8 °C 1017.9 hPa ESE 2.9 km/h 6.4 km/h 82.3% 0.0 mm
09:19 24.2 °C 20.8 °C 1017.9 hPa ENE 3 km/h 7.4 km/h 81% 0.0 mm
09:24 24.5 °C 21 °C 1017.9 hPa ENE 3.2 km/h 8 km/h 80.8% 0.0 mm
09:29 24.7 °C 21 °C 1017.9 hPa Este 3.1 km/h 7.4 km/h 79.9% 0.0 mm
09:34 24.9 °C 21.1 °C 1017.9 hPa Este 2.9 km/h 8 km/h 79.2% 0.0 mm
09:39 25.2 °C 21.1 °C 1017.8 hPa ESE 2.7 km/h 4.8 km/h 78.2% 0.0 mm
09:44 25.3 °C 21.1 °C 1017.8 hPa NNE 2.2 km/h 5.6 km/h 77.6% 0.0 mm
09:49 25.4 °C 21.1 °C 1017.9 hPa North 1.5 km/h 4.8 km/h 77.2% 0.0 mm
09:54 25.7 °C 21.3 °C 1017.9 hPa Calm   3.7 km/h 76.8% 0.0 mm
09:59 26.1 °C 21.3 °C 1017.9 hPa Calm   6.9 km/h 74.9% 0.0 mm
10:04 26.2 °C 21.2 °C 1017.9 hPa Calm   8.4 km/h 74% 0.0 mm
10:09 25.9 °C 21 °C 1017.9 hPa SSE 1.2 km/h 8 km/h 74.2% 0.0 mm
10:14 25.8 °C 21 °C 1017.9 hPa Sur 3.9 km/h 8 km/h 74.9% 0.0 mm
10:19 25.7 °C 21 °C 1017.9 hPa SSO 3.6 km/h 8 km/h 75% 0.0 mm
10:24 25.8 °C 20.9 °C 1017.8 hPa ESE 3.2 km/h 7.4 km/h 74.3% 0.0 mm
10:29 25.9 °C 20.8 °C 1017.8 hPa Este 3.4 km/h 8 km/h 73.2% 0.0 mm
10:34 26.2 °C 20.9 °C 1017.9 hPa ESE 3.9 km/h 8.4 km/h 73% 0.0 mm
10:39 26.3 °C 20.9 °C 1017.9 hPa SE 3.7 km/h 8 km/h 72.2% 0.0 mm
10:44 26.4 °C 20.7 °C 1017.9 hPa Este 3.2 km/h 9.5 km/h 70.8% 0.0 mm
10:49 26.2 °C 20.5 °C 1017.9 hPa ENE 3.8 km/h 9.7 km/h 71% 0.0 mm
10:54 26.2 °C 20.5 °C 1017.9 hPa North 5 km/h 8 km/h 70.9% 0.0 mm
10:59 26.3 °C 20.6 °C 1017.9 hPa North 4.4 km/h 8 km/h 70.9% 0.0 mm
11:04 26.7 °C 20.8 °C 1017.9 hPa NNE 3.2 km/h 7.6 km/h 70.1% 0.0 mm
11:09 26.9 °C 20.7 °C 1017.9 hPa North 3.4 km/h 8.4 km/h 68.7% 0.0 mm
11:14 27 °C 20.5 °C 1017.9 hPa North 3.9 km/h 10 km/h 67.5% 0.0 mm
11:19 27.2 °C 20.1 °C 1017.9 hPa SSE 3.9 km/h 9.7 km/h 65.5% 0.0 mm
11:24 27.2 °C 19.8 °C 1017.9 hPa SO 3.9 km/h 9.5 km/h 64.1% 0.0 mm
11:29 27.2 °C 20.1 °C 1017.9 hPa NE 4.2 km/h 11.1 km/h 65.1% 0.0 mm
11:34 27.2 °C 20.1 °C 1017.9 hPa NNE 5 km/h 11.3 km/h 65.3% 0.0 mm
11:39 27.2 °C 20.1 °C 1017.8 hPa NNO 5.2 km/h 10 km/h 65.3% 0.0 mm
11:44 27.2 °C 19.9 °C 1017.8 hPa NO 5.8 km/h 11.1 km/h 64.5% 0.0 mm
11:49 27.2 °C 20.1 °C 1017.8 hPa ESE 5.8 km/h 13 km/h 65% 0.0 mm
11:54 27.4 °C 20.2 °C 1017.8 hPa ESE 5.8 km/h 16.1 km/h 64.9% 0.0 mm
11:59 27.7 °C 20.1 °C 1017.8 hPa Este 5.8 km/h 16.7 km/h 63.3% 0.0 mm
12:04 27.7 °C 20.1 °C 1017.8 hPa ESE 5.8 km/h 16.1 km/h 63.2% 0.0 mm
12:09 27.8 °C 19.7 °C 1017.8 hPa ENE 6.2 km/h 13.7 km/h 61.6% 0.0 mm
12:14 27.9 °C 19.6 °C 1017.8 hPa NE 6.9 km/h 14.8 km/h 60.8% 0.0 mm
12:19 28 °C 19.7 °C 1017.8 hPa North 6.6 km/h 14.8 km/h 61% 0.0 mm
12:24 28.1 °C 19.8 °C 1017.5 hPa Este 5.8 km/h 17.2 km/h 60.7% 0.0 mm
12:29 28 °C 19.7 °C 1017.5 hPa ENE 6.6 km/h 17.7 km/h 60.4% 0.0 mm
12:34 28.1 °C 19.6 °C 1017.5 hPa NNE 8.4 km/h 16.4 km/h 60% 0.0 mm
12:39 28.1 °C 19.6 °C 1017.3 hPa NNE 8.4 km/h 18 km/h 59.7% 0.0 mm
12:44 28.2 °C 19.6 °C 1017.3 hPa Este 8.4 km/h 19.3 km/h 59.5% 0.0 mm
12:49 28.3 °C 19.7 °C 1017.3 hPa NNE 8.4 km/h 16.1 km/h 59.5% 0.0 mm
12:54 28.4 °C 19.5 °C 1017.1 hPa NE 8.4 km/h 20.1 km/h 58.5% 0.0 mm
12:59 28.3 °C 19.6 °C 1017.1 hPa NE 8.5 km/h 16.7 km/h 59.2% 0.0 mm
13:04 28.6 °C 19.6 °C 1017.1 hPa NE 8.7 km/h 13 km/h 58.1% 0.0 mm
13:09 28.8 °C 19.5 °C 1017.1 hPa ESE 8.3 km/h 16.7 km/h 56.9% 0.0 mm
13:14 29 °C 19.1 °C 1017.1 hPa ESE 7.6 km/h 16.7 km/h 55.2% 0.0 mm
13:19 29.1 °C 19.1 °C 1017.1 hPa North 7.6 km/h 16.1 km/h 55% 0.0 mm
13:24 29.3 °C 19.2 °C 1016.7 hPa NE 7.6 km/h 12.2 km/h 54.4% 0.0 mm
13:29 29.4 °C 19 °C 1016.7 hPa Este 7.4 km/h 14.8 km/h 53.6% 0.0 mm
13:34 29.4 °C 18.8 °C 1016.7 hPa Este 6.9 km/h 19.8 km/h 53% 0.0 mm
13:39 29.2 °C 18.6 °C 1016.6 hPa Este 7.9 km/h 20.9 km/h 52.8% 0.0 mm
13:44 29.3 °C 18.7 °C 1016.6 hPa ENE 10 km/h 23.3 km/h 53% 0.0 mm
13:49 29.6 °C 18.7 °C 1016.6 hPa SE 9.6 km/h 24.1 km/h 52.2% 0.0 mm
13:54 29.5 °C 18.7 °C 1016.4 hPa ENE 8.7 km/h 24.1 km/h 52.4% 0.0 mm
13:59 29.5 °C 18.9 °C 1016.4 hPa Este 9 km/h 22.5 km/h 52.8% 0.0 mm
14:04 29.8 °C 18.9 °C 1016.4 hPa ESE 9.5 km/h 20.9 km/h 52.1% 0.0 mm
14:09 29.8 °C 19 °C 1016.3 hPa Este 10.4 km/h 25.6 km/h 52.5% 0.0 mm
14:14 29.8 °C 19.3 °C 1016.3 hPa ESE 12.2 km/h 25.9 km/h 53.3% 0.0 mm
14:19 29.9 °C 19.3 °C 1016.3 hPa Este 12.1 km/h 22.5 km/h 53.1% 0.0 mm
14:24 30.1 °C 19.5 °C 1016.0 hPa SE 11.9 km/h 20.9 km/h 53% 0.0 mm
14:29 30.1 °C 19.8 °C 1016.0 hPa ESE 12 km/h 25.9 km/h 54.2% 0.0 mm
14:34 29.9 °C 19.7 °C 1016.0 hPa SE 12.2 km/h 25.9 km/h 54.1% 0.0 mm
14:39 29.8 °C 19.7 °C 1016.0 hPa ESE 13.1 km/h 25.9 km/h 54.8% 0.0 mm
14:44 29.9 °C 19.8 °C 1016.0 hPa ESE 14.8 km/h 25.7 km/h 54.8% 0.0 mm
14:49 30 °C 19.9 °C 1016.0 hPa ESE 13.9 km/h 22.5 km/h 54.7% 0.0 mm
14:54 30.1 °C 19.9 °C 1015.7 hPa ESE 11.9 km/h 22.5 km/h 54.3% 0.0 mm
14:59 30.2 °C 19.9 °C 1015.7 hPa Este 11.6 km/h 19.3 km/h 54.1% 0.0 mm
15:04 30.2 °C 19.9 °C 1015.7 hPa Este 11.1 km/h 25.9 km/h 54% 0.0 mm
15:09 30.2 °C 19.9 °C 1015.5 hPa ESE 11.9 km/h 25.7 km/h 54% 0.0 mm
15:14 30.2 °C 19.8 °C 1015.5 hPa Este 13.7 km/h 23.3 km/h 53.8% 0.0 mm
15:19 30.3 °C 20 °C 1015.5 hPa ESE 12.9 km/h 24.1 km/h 54.1% 0.0 mm
15:24 30.3 °C 20.1 °C 1015.2 hPa Este 11.1 km/h 25.9 km/h 54.3% 0.0 mm
15:29 30.4 °C 20.3 °C 1015.2 hPa ESE 12.3 km/h 27.8 km/h 55% 0.0 mm
15:34 30.4 °C 20.3 °C 1015.2 hPa ESE 14.8 km/h 29.6 km/h 54.6% 0.0 mm
15:39 30.2 °C 20.3 °C 1015.0 hPa ESE 15.3 km/h 29.6 km/h 55.6% 0.0 mm
15:44 30.2 °C 20.5 °C 1015.0 hPa ESE 16.4 km/h 29 km/h 55.9% 0.0 mm
15:49 30.4 °C 20.4 °C 1015.0 hPa ESE 15.7 km/h 26.2 km/h 55.2% 0.0 mm
15:54 30.5 °C 20.5 °C 1014.8 hPa ESE 14 km/h 28.2 km/h 55% 0.0 mm
15:59 30.3 °C 20.4 °C 1014.8 hPa ESE 14.8 km/h 27.8 km/h 55.4% 0.0 mm
16:04 30.2 °C 20.4 °C 1014.8 hPa ESE 16.1 km/h 29.6 km/h 56% 0.0 mm
16:09 29.9 °C 20.4 °C 1014.7 hPa Este 16.5 km/h 29.6 km/h 56.7% 0.0 mm
16:14 30 °C 20.5 °C 1014.7 hPa Este 17.2 km/h 29 km/h 57% 0.0 mm
16:19 30.2 °C 20.5 °C 1014.7 hPa ESE 16.2 km/h 27.8 km/h 56.2% 0.0 mm
16:24 30.1 °C 20.4 °C 1014.5 hPa ESE 14 km/h 33.5 km/h 56.3% 0.0 mm
16:29 29.9 °C 20.5 °C 1014.5 hPa SE 15.3 km/h 33.8 km/h 56.9% 0.0 mm
16:34 30.2 °C 20.4 °C 1014.5 hPa SE 18 km/h 29.6 km/h 56.1% 0.0 mm
16:39 30.3 °C 20.5 °C 1014.4 hPa ESE 16.9 km/h 26.2 km/h 56% 0.0 mm
16:44 30.3 °C 20.4 °C 1014.4 hPa ESE 14.8 km/h 30.6 km/h 55.4% 0.0 mm
16:49 30.3 °C 20.4 °C 1014.4 hPa SE 15.1 km/h 30.6 km/h 55.4% 0.0 mm
16:54 30.2 °C 20.3 °C 1014.3 hPa ESE 15.6 km/h 31.7 km/h 55.4% 0.0 mm
16:59 30 °C 20.3 °C 1014.3 hPa ESE 16.8 km/h 32.2 km/h 56% 0.0 mm
17:04 30.2 °C 20.4 °C 1014.3 hPa SE 19 km/h 29.8 km/h 56% 0.0 mm
17:09 30.1 °C 20.4 °C 1014.2 hPa SE 18.1 km/h 30.6 km/h 56% 0.0 mm
17:14 29.9 °C 20.2 °C 1014.2 hPa ESE 16.4 km/h 29 km/h 56% 0.0 mm
17:19 30.1 °C 20.3 °C 1014.2 hPa ESE 15.6 km/h 27.8 km/h 56% 0.0 mm
17:24 30.1 °C 20.2 °C 1014.1 hPa SE 14 km/h 27.8 km/h 55.6% 0.0 mm
17:29 30 °C 20 °C 1014.1 hPa SE 14.7 km/h 27.8 km/h 55.3% 0.0 mm
17:34 29.9 °C 20 °C 1014.1 hPa SE 16.1 km/h 29.6 km/h 55.4% 0.0 mm
17:39 29.8 °C 20.1 °C 1013.9 hPa ESE 15.9 km/h 29.6 km/h 56.1% 0.0 mm
17:44 29.8 °C 20 °C 1013.9 hPa SE 15.6 km/h 30.6 km/h 56% 0.0 mm
17:49 29.6 °C 19.9 °C 1014.0 hPa SE 15.8 km/h 30.6 km/h 56% 0.0 mm
17:54 29.7 °C 19.8 °C 1014.0 hPa ESE 16.1 km/h 27.8 km/h 55.6% 0.0 mm
17:59 29.4 °C 19.8 °C 1014.0 hPa ESE 16.2 km/h 27.4 km/h 56.3% 0.0 mm
18:04 29.4 °C 19.8 °C 1014.2 hPa ESE 16.4 km/h 25.9 km/h 56.4% 0.0 mm
18:09 29.4 °C 20 °C 1014.2 hPa SE 16.2 km/h 33.5 km/h 57% 0.0 mm
18:14 29.4 °C 20 °C 1014.2 hPa ESE 15.6 km/h 33.8 km/h 57% 0.0 mm
18:19 29.3 °C 19.9 °C 1014.2 hPa ESE 15.8 km/h 29.6 km/h 57% 0.0 mm
18:24 29.2 °C 19.8 °C 1014.1 hPa ESE 16.1 km/h 29 km/h 57.2% 0.0 mm
18:29 29.2 °C 20 °C 1014.1 hPa ESE 16.1 km/h 27.4 km/h 57.5% 0.0 mm
18:34 29.3 °C 19.9 °C 1014.1 hPa ESE 16.1 km/h 24.5 km/h 57.1% 0.0 mm
18:39 29.2 °C 19.8 °C 1014.0 hPa ESE 15.7 km/h 24.5 km/h 57.3% 0.0 mm
18:44 29.1 °C 19.9 °C 1014.0 hPa SE 14.8 km/h 28.2 km/h 57.6% 0.0 mm
18:49 29 °C 19.8 °C 1014.0 hPa Este 14.5 km/h 27.8 km/h 57.8% 0.0 mm
18:54 28.9 °C 19.8 °C 1014.0 hPa ESE 14 km/h 24.5 km/h 58% 0.0 mm
18:59 28.8 °C 19.7 °C 1014.0 hPa ESE 14.7 km/h 27.8 km/h 58.1% 0.0 mm
19:04 28.9 °C 19.8 °C 1014.0 hPa ESE 16.1 km/h 27.4 km/h 58.1% 0.0 mm
19:09 28.9 °C 19.8 °C 1013.8 hPa ESE 14.9 km/h 26.2 km/h 58% 0.0 mm
19:14 28.8 °C 19.7 °C 1013.8 hPa ESE 12.2 km/h 25.9 km/h 58% 0.0 mm
19:19 28.8 °C 19.8 °C 1013.8 hPa ESE 12.2 km/h 25.9 km/h 58.4% 0.0 mm
19:24 28.7 °C 19.8 °C 1013.7 hPa ESE 12.2 km/h 28.6 km/h 58.9% 0.0 mm
19:29 28.5 °C 19.8 °C 1013.7 hPa ESE 13.1 km/h 29.6 km/h 59.2% 0.0 mm
19:34 28.4 °C 19.8 °C 1013.7 hPa SE 14.8 km/h 29 km/h 59.3% 0.0 mm
19:39 28.4 °C 19.8 °C 1013.7 hPa ESE 13.9 km/h 20.9 km/h 59.8% 0.0 mm
19:44 28.4 °C 19.7 °C 1013.7 hPa ESE 12.2 km/h 20.9 km/h 59.3% 0.0 mm
19:49 28.2 °C 19.6 °C 1013.9 hPa ESE 12.2 km/h 22.2 km/h 59.7% 0.0 mm
19:54 28.2 °C 19.6 °C 1013.9 hPa ESE 12.2 km/h 27.8 km/h 59.5% 0.0 mm
19:59 28 °C 19.5 °C 1013.9 hPa ESE 12.8 km/h 27.4 km/h 60% 0.0 mm
20:04 27.8 °C 19.6 °C 1013.9 hPa ESE 14 km/h 25.9 km/h 60.9% 0.0 mm
20:09 27.7 °C 19.5 °C 1013.8 hPa ESE 14 km/h 25.7 km/h 61% 0.0 mm
20:14 27.7 °C 19.5 °C 1013.8 hPa ESE 14 km/h 22.5 km/h 61% 0.0 mm
20:19 27.7 °C 19.6 °C 1013.9 hPa ESE 13 km/h 24.5 km/h 61.4% 0.0 mm
20:24 27.6 °C 19.7 °C 1013.9 hPa ESE 11.1 km/h 24.1 km/h 62.1% 0.0 mm
20:29 27.4 °C 19.8 °C 1013.9 hPa ESE 11.4 km/h 20.4 km/h 63.1% 0.0 mm
20:34 27.3 °C 19.9 °C 1014.0 hPa ESE 12.2 km/h 20.9 km/h 64% 0.0 mm
20:39 27.2 °C 19.9 °C 1014.0 hPa ESE 12.1 km/h 22.2 km/h 64.6% 0.0 mm
20:44 27.1 °C 19.9 °C 1014.0 hPa ESE 11.9 km/h 22.5 km/h 65.1% 0.0 mm
20:49 26.9 °C 20 °C 1014.2 hPa ESE 11.6 km/h 19.3 km/h 66% 0.0 mm
20:54 26.8 °C 20 °C 1014.2 hPa ESE 11.1 km/h 19.3 km/h 66.4% 0.0 mm
20:59 26.8 °C 20.1 °C 1014.2 hPa ESE 10.5 km/h 16.1 km/h 66.7% 0.0 mm
21:04 26.8 °C 20 °C 1014.2 hPa Este 9.5 km/h 14.8 km/h 66.3% 0.0 mm
21:09 26.7 °C 19.8 °C 1014.2 hPa ESE 8.9 km/h 14.8 km/h 66% 0.0 mm
21:14 26.7 °C 19.8 °C 1014.2 hPa ESE 7.6 km/h 12.9 km/h 66% 0.0 mm
21:19 26.7 °C 19.6 °C 1014.3 hPa Este 7 km/h 9.7 km/h 65.2% 0.0 mm
21:24 26.7 °C 19.6 °C 1014.3 hPa Este 5.8 km/h 8 km/h 65% 0.0 mm
21:29 26.7 °C 19.7 °C 1014.3 hPa ENE 5.2 km/h 8 km/h 65.7% 0.0 mm
21:34 26.7 °C 19.8 °C 1014.5 hPa Este 3.9 km/h 8.4 km/h 66% 0.0 mm
21:39 26.6 °C 19.8 °C 1014.5 hPa Este 4.2 km/h 9.5 km/h 66.6% 0.0 mm
21:44 26.4 °C 19.8 °C 1014.5 hPa Este 5 km/h 16.7 km/h 67% 0.0 mm
21:49 26.3 °C 19.9 °C 1014.7 hPa Este 5.8 km/h 16.1 km/h 67.7% 0.0 mm
21:54 26.3 °C 19.9 °C 1014.7 hPa ESE 7.6 km/h 14.8 km/h 68% 0.0 mm
21:59 26.3 °C 19.9 °C 1014.7 hPa SE 7.3 km/h 14.8 km/h 68% 0.0 mm
22:04 26.3 °C 19.8 °C 1014.7 hPa SE 6.9 km/h 14.5 km/h 67.5% 0.0 mm
22:09 26.3 °C 19.9 °C 1014.7 hPa ESE 6.5 km/h 14.5 km/h 68% 0.0 mm
22:14 26.3 °C 19.9 °C 1014.7 hPa ESE 5.8 km/h 11.3 km/h 68% 0.0 mm
22:19 26.2 °C 19.9 °C 1014.9 hPa ESE 6.2 km/h 13.7 km/h 68.1% 0.0 mm
22:24 26.1 °C 20 °C 1014.9 hPa ESE 6.9 km/h 14.5 km/h 69% 0.0 mm
22:29 26.1 °C 19.9 °C 1014.9 hPa ESE 7.4 km/h 14.5 km/h 69% 0.0 mm
22:34 26 °C 19.9 °C 1015.0 hPa ESE 8.4 km/h 14.5 km/h 69% 0.0 mm
22:39 26.1 °C 19.9 °C 1015.0 hPa ESE 7.9 km/h 11.9 km/h 69% 0.0 mm
22:44 26 °C 19.9 °C 1015.0 hPa Este 6.9 km/h 11.3 km/h 69% 0.0 mm
22:49 25.9 °C 20 °C 1015.0 hPa ESE 6.9 km/h 11.3 km/h 69.9% 0.0 mm
22:54 25.8 °C 20 °C 1014.9 hPa ESE 6.9 km/h 11.9 km/h 70% 0.0 mm
22:59 25.8 °C 20.1 °C 1014.9 hPa ESE 7.2 km/h 13.7 km/h 70.7% 0.0 mm
23:04 25.8 °C 20.1 °C 1014.9 hPa ESE 7.6 km/h 14.5 km/h 71% 0.0 mm
23:09 25.8 °C 20.2 °C 1014.8 hPa ESE 7.6 km/h 14.8 km/h 71% 0.0 mm
23:14 25.8 °C 20.2 °C 1014.8 hPa SE 7.6 km/h 14.5 km/h 71% 0.0 mm
23:19 25.8 °C 20.2 °C 1014.9 hPa SE 7.4 km/h 11.3 km/h 71% 0.0 mm
23:24 25.8 °C 20.2 °C 1014.9 hPa SE 6.9 km/h 11.3 km/h 71% 0.0 mm
23:29 25.7 °C 20.1 °C 1014.9 hPa ESE 6.6 km/h 9.7 km/h 71% 0.0 mm
23:34 25.7 °C 20.1 °C 1015.0 hPa ESE 5.8 km/h 9.7 km/h 71% 0.0 mm
23:39 25.6 °C 20 °C 1015.0 hPa Este 5.5 km/h 8.4 km/h 71.3% 0.0 mm
23:44 25.6 °C 20.2 °C 1015.0 hPa Este 5 km/h 8 km/h 72% 0.0 mm
23:49 25.6 °C 20.2 °C 1015.0 hPa Este 5 km/h 8.4 km/h 72% 0.0 mm
23:54 25.5 °C 20.1 °C 1014.9 hPa ENE 5 km/h 8.4 km/h 72.2% 0.0 mm
23:59 25.5 °C 20.3 °C 1014.9 hPa Este 4.9 km/h 9.3 km/h 73% 0.0 mm
Murcia-Puente Tocinos, España
Compliments of Weather Underground - 3 mb

La estación de MeteoMurcia.com, publica sus datos en los siguientes proyectos:

Weather Underground PWS IMURCIAP2 Meteoclimatic www.awekas.at

W3Counter
Web Analytics